FW9948 Weather Reports


Display with metric or nautical units.
time (UTC)temp
F
wind
direction
speed
MPH
gust
MPH
rain 1hr
in
rain 24hr
in
rain mn
in
humidity
%
barometer
mb
20260507164014 87 141 6.0 16.0 0.00 0.01 0.01 81 1016.7
20260507163514 87 113 8.0 16.0 0.00 0.01 0.01 79 1016.7
20260507163032 87 146 9.0 16.0 0.00 0.01 0.01 79 1016.6
20260507162514 87 119 7.0 16.0 0.00 0.01 0.01 80 1016.5
20260507162013 87 125 7.0 13.0 0.00 0.01 0.01 81 1016.5
20260507161535 86 92 6.0 12.0 0.00 0.01 0.01 81 1016.5
20260507161013 86 173 5.0 11.0 0.00 0.01 0.01 82 1016.5
20260507160513 86 62 7.0 14.0 0.00 0.01 0.01 81 1016.6
20260507160038 86 111 3.0 14.0 0.00 0.01 0.01 81 1016.6
20260507155512 87 123 8.0 14.0 0.00 0.01 0.01 80 1016.7
20260507155010 87 98 8.0 13.0 0.00 0.01 0.01 79 1016.7
20260507154533 87 119 6.0 13.0 0.00 0.01 0.01 80 1016.8
20260507154010 88 113 6.0 13.0 0.00 0.01 0.01 79 1016.8
20260507153512 88 131 7.0 14.0 0.00 0.01 0.01 78 1016.8
20260507153031 88 163 4.0 14.0 0.00 0.01 0.01 81 1016.7
20260507152513 87 97 8.0 14.0 0.00 0.01 0.01 81 1016.7
20260507152009 86 70 8.0 12.0 0.00 0.01 0.01 82 1016.8
20260507151528 86 120 7.0 12.0 0.00 0.01 0.01 83 1016.8
20260507151008 86 117 5.0 12.0 0.00 0.01 0.01 82 1016.8
20260507150512 86 80 6.0 11.0 0.00 0.01 0.01 82 1016.7
20260507150037 86 128 2.0 12.0 0.00 0.01 0.01 82 1016.7
20260507145512 86 105 6.0 12.0 0.00 0.01 0.01 81 1016.7
20260507145018 87 136 7.0 13.0 0.00 0.01 0.01 81 1016.7
20260507144530 87 134 7.0 13.0 0.00 0.01 0.01 80 1016.7
20260507144010 86 126 5.0 10.0 0.00 0.01 0.01 81 1016.7
20260507143512 86 96 5.0 12.0 0.00 0.01 0.01 82 1016.7
20260507143032 86 91 6.0 12.0 0.00 0.01 0.01 82 1016.8
20260507142510 86 108 5.0 13.0 0.00 0.01 0.01 82 1016.7
20260507142011 85 117 5.0 13.0 0.00 0.01 0.01 83 1016.7
20260507141530 85 114 8.0 13.0 0.00 0.01 0.01 83 1016.7
20260507141015 84 112 6.0 12.0 0.00 0.01 0.01 83 1016.6
20260507140509 83 132 4.0 12.0 0.00 0.01 0.01 84 1016.5
20260507140040 83 147 6.0 12.0 0.00 0.01 0.01 85 1016.6
20260507135512 83 146 3.0 11.0 0.00 0.02 0.01 86 1016.5
20260507135014 82 121 4.0 11.0 0.00 0.02 0.01 87 1016.6
20260507134531 82 111 4.0 11.0 0.00 0.02 0.01 89 1016.6
20260507134012 82 130 4.0 11.0 0.00 0.02 0.01 88 1016.6
20260507133513 81 105 5.0 11.0 0.00 0.02 0.01 87 1016.6
20260507133034 81 119 6.0 14.0 0.00 0.02 0.01 86 1016.5
20260507132509 81 72 6.0 14.0 0.00 0.02 0.01 85 1016.5
20260507132009 81 150 6.0 15.0 0.00 0.02 0.01 85 1016.5
20260507131603 81 130 7.0 16.0 0.00 0.02 0.01 86 1016.5
20260507131010 82 146 5.0 16.0 0.00 0.02 0.01 87 1016.5
20260507130510 82 130 6.0 16.0 0.00 0.02 0.01 88 1016.4
20260507130029 82 109 6.0 13.0 0.00 0.02 0.01 88 1016.3
20260507125510 81 108 5.0 11.0 0.00 0.03 0.01 89 1016.3
20260507125014 81 153 5.0 12.0 0.00 0.03 0.01 89 1016.3
20260507124532 81 159 4.0 12.0 0.00 0.03 0.01 89 1016.2
20260507124010 81 47 4.0 12.0 0.00 0.03 0.01 90 1016.1
20260507123512 81 126 3.0 7.0 0.00 0.03 0.01 91 1016.1
20260507123035 80 59 2.0 6.0 0.00 0.03 0.01 91 1016.2
20260507122517 80 0 1.0 7.0 0.00 0.03 0.01 92 1016.1
20260507122011 80 65 2.0 9.0 0.00 0.03 0.01 92 1016.2
20260507121530 79 59 3.0 9.0 0.00 0.03 0.01 92 1016.2
20260507121009 79 53 3.0 9.0 0.00 0.03 0.01 93 1016.1
20260507120510 79 60 2.0 7.0 0.00 0.03 0.01 93 1016.1
20260507120033 79 49 3.0 6.0 0.00 0.03 0.01 94 1016.0
20260507115509 78 38 2.0 4.0 0.00 0.03 0.01 94 1016.0
20260507115012 78 38 1.0 4.0 0.00 0.03 0.01 94 1015.9
20260507114533 78 38 1.0 3.0 0.00 0.03 0.01 94 1015.9
20260507114015 78 38 1.0 4.0 0.00 0.03 0.01 94 1015.8
20260507113513 77 0 1.0 4.0 0.00 0.03 0.01 94 1015.8
20260507113100 77 38 1.0 3.0 0.00 0.03 0.01 94 1015.6
20260507112516 77 38 1.0 3.0 0.00 0.03 0.01 94 1015.5
20260507112014 77 38 1.0 3.0 0.00 0.03 0.01 94 1015.5
20260507111533 77 0 0.0 3.0 0.00 0.03 0.01 94 1015.5
20260507111010 77 81 1.0 3.0 0.00 0.03 0.01 93 1015.4
20260507110512 77 81 0.0 3.0 0.00 0.03 0.01 93 1015.3
20260507110034 77 0 0.0 0.0 0.00 0.03 0.01 93 1015.2
20260507105513 77 0 0.0 0.0 0.00 0.03 0.01 93 1015.2
20260507105009 77 0 0.0 0.0 0.00 0.03 0.01 93 1015.1
20260507104530 77 0 0.0 0.0 0.00 0.03 0.01 93 1015.1
20260507104010 77 0 0.0 0.0 0.00 0.03 0.01 93 1015.1
20260507103510 77 0 0.0 0.0 0.00 0.03 0.01 92 1015.0
20260507103032 77 0 0.0 0.0 0.00 0.03 0.01 92 1015.0
20260507102510 78 0 0.0 2.0 0.00 0.03 0.01 92 1015.0
20260507102012 78 0 0.0 2.0 0.00 0.03 0.01 92 1015.0
20260507101528 78 0 0.0 3.0 0.00 0.03 0.01 92 1015.0
20260507101012 78 81 0.0 3.0 0.00 0.03 0.01 92 1014.9
20260507100509 78 0 1.0 3.0 0.00 0.03 0.01 91 1014.9
20260507100042 78 81 0.0 3.0 0.00 0.03 0.01 91 1014.9
20260507095509 78 0 0.0 2.0 0.00 0.03 0.01 91 1014.9
20260507095014 78 0 0.0 2.0 0.00 0.03 0.01 91 1014.9
20260507094533 79 0 0.0 3.0 0.00 0.03 0.01 90 1014.8
20260507094012 79 0 0.0 3.0 0.00 0.03 0.01 90 1014.7
20260507093511 79 0 0.0 2.0 0.00 0.03 0.01 90 1014.7
20260507093034 79 0 0.0 2.0 0.00 0.03 0.01 90 1014.7
20260507092514 79 81 0.0 2.0 0.00 0.03 0.01 90 1014.7
20260507092010 80 0 0.0 2.0 0.01 0.03 0.01 90 1014.6
20260507091534 80 0 0.0 4.0 0.01 0.03 0.01 90 1014.6
20260507091012 80 81 1.0 4.0 0.01 0.03 0.01 90 1014.7
20260507090514 80 81 1.0 4.0 0.01 0.03 0.01 90 1014.7
20260507090029 80 81 1.0 6.0 0.01 0.03 0.01 90 1014.7
20260507085510 80 81 2.0 6.0 0.01 0.03 0.01 90 1014.7
20260507085010 80 78 2.0 5.0 0.01 0.03 0.01 90 1014.7
20260507084547 80 84 1.0 4.0 0.01 0.03 0.01 90 1014.7
20260507084015 80 84 1.0 6.0 0.01 0.03 0.01 90 1014.7
20260507083510 80 84 1.0 8.0 0.01 0.03 0.01 90 1014.7
20260507083030 80 99 4.0 8.0 0.01 0.03 0.01 90 1014.7
20260507082511 80 80 2.0 7.0 0.01 0.03 0.01 90 1014.6
20260507082011 80 114 3.0 7.0 0.00 0.02 0.00 90 1014.6
20260507081532 80 95 2.0 7.0 0.00 0.02 0.00 90 1014.6
20260507081015 80 87 2.0 7.0 0.00 0.02 0.00 90 1014.7
20260507080512 80 90 2.0 6.0 0.00 0.02 0.00 90 1014.7
20260507080032 80 90 2.0 6.0 0.00 0.02 0.00 90 1014.7
20260507075512 80 90 2.0 6.0 0.00 0.02 0.00 90 1014.7
20260507075017 80 0 1.0 6.0 0.00 0.02 0.00 90 1014.8
20260507074529 80 0 0.0 4.0 0.00 0.02 0.00 89 1014.7
20260507074009 80 101 1.0 4.0 0.00 0.02 0.00 89 1014.8
20260507073510 80 71 0.0 4.0 0.00 0.02 0.00 89 1014.8
20260507073028 80 0 0.0 8.0 0.00 0.02 0.00 89 1014.9
20260507072513 80 71 1.0 8.0 0.00 0.02 0.00 89 1015.0
20260507072012 80 71 2.0 8.0 0.00 0.02 0.00 90 1015.0
20260507071537 80 105 2.0 6.0 0.00 0.02 0.00 89 1015.1
20260507071011 80 88 1.0 4.0 0.00 0.02 0.00 89 1015.1
20260507070511 80 0 0.0 2.0 0.00 0.02 0.00 89 1015.2
20260507070032 80 88 0.0 3.0 0.00 0.02 0.00 89 1015.3
20260507065511 80 0 0.0 4.0 0.00 0.02 0.00 89 1015.3
20260507065011 80 88 0.0 4.0 0.00 0.02 0.00 89 1015.4
20260507064531 80 88 1.0 4.0 0.00 0.02 0.00 89 1015.3
20260507064009 80 88 1.0 3.0 0.00 0.02 0.00 89 1015.5
20260507063511 80 88 1.0 4.0 0.00 0.02 0.00 88 1015.5
20260507063029 80 0 0.0 6.0 0.00 0.02 0.00 88 1015.5
20260507062511 80 88 2.0 6.0 0.00 0.02 0.00 88 1015.6
20260507062013 80 101 0.0 3.0 0.00 0.02 0.00 88 1015.7
20260507061536 80 0 0.0 3.0 0.00 0.02 0.00 88 1015.5
20260507061013 80 0 1.0 4.0 0.00 0.02 0.00 87 1015.6
20260507060508 80 0 0.0 4.0 0.00 0.02 0.00 87 1015.6
20260507060036 81 0 1.0 4.0 0.00 0.02 0.00 87 1015.7
20260507055512 81 101 0.0 3.0 0.00 0.02 0.00 87 1015.8
20260507055011 81 0 0.0 6.0 0.00 0.02 0.00 87 1015.8
20260507054538 81 101 0.0 8.0 0.00 0.02 0.00 87 1015.9
20260507054009 81 101 2.0 8.0 0.00 0.02 0.00 87 1015.9
20260507053511 81 75 2.0 8.0 0.00 0.02 0.00 87 1016.0
20260507053031 81 99 1.0 5.0 0.00 0.02 0.00 87 1015.9
20260507052509 81 99 3.0 7.0 0.00 0.02 0.00 87 1016.1
20260507052011 81 76 1.0 7.0 0.00 0.02 0.00 87 1016.2
20260507051529 81 109 1.0 8.0 0.00 0.02 0.00 87 1016.2
20260507051016 81 79 2.0 8.0 0.00 0.02 0.00 87 1016.3
20260507050511 81 111 2.0 8.0 0.00 0.02 0.00 87 1016.4
20260507050052 81 88 3.0 7.0 0.00 0.02 0.00 87 1016.4
20260507045511 81 89 3.0 7.0 0.00 0.02 0.02 87 1016.5
20260507045009 81 103 2.0 7.0 0.00 0.02 0.02 87 1016.5
20260507044531 81 55 2.0 7.0 0.00 0.02 0.02 87 1016.5
20260507044011 81 88 3.0 7.0 0.00 0.02 0.02 87 1016.5
20260507043512 81 76 3.0 7.0 0.00 0.02 0.02 87 1016.5
20260507043028 81 96 2.0 7.0 0.00 0.02 0.02 87 1016.5
20260507042511 81 107 3.0 7.0 0.00 0.02 0.02 87 1016.5
20260507042014 81 77 3.0 8.0 0.00 0.02 0.02 87 1016.5
20260507041529 81 113 2.0 8.0 0.00 0.02 0.02 87 1016.5
20260507041010 81 117 2.0 8.0 0.00 0.02 0.02 87 1016.5
20260507040510 81 96 3.0 8.0 0.00 0.02 0.02 87 1016.5
20260507040027 81 94 1.0 7.0 0.00 0.02 0.02 87 1016.5
20260507035509 81 110 3.0 7.0 0.00 0.02 0.02 87 1016.4
20260507035010 81 138 2.0 6.0 0.00 0.02 0.02 87 1016.4
20260507034536 81 71 2.0 6.0 0.00 0.02 0.02 87 1016.4
20260507034013 81 92 2.0 6.0 0.00 0.02 0.02 87 1016.5
20260507033511 81 92 1.0 4.0 0.00 0.02 0.02 87 1016.5
20260507033037 81 0 1.0 4.0 0.00 0.02 0.02 86 1016.5
20260507032510 81 92 1.0 4.0 0.00 0.02 0.02 86 1016.5
20260507032011 81 89 2.0 6.0 0.00 0.02 0.02 86 1016.5
20260507031533 81 89 2.0 6.0 0.00 0.02 0.02 86 1016.6
20260507031011 81 89 2.0 8.0 0.00 0.02 0.02 86 1016.6
20260507030511 81 101 3.0 8.0 0.00 0.02 0.02 86 1016.5
20260507030036 81 76 3.0 6.0 0.00 0.02 0.02 86 1016.5
20260507025510 81 117 2.0 7.0 0.00 0.02 0.02 86 1016.4
20260507025015 81 117 3.0 7.0 0.00 0.02 0.02 86 1016.3
20260507024535 81 105 2.0 6.0 0.00 0.02 0.02 86 1016.3
20260507024012 81 105 1.0 7.0 0.00 0.02 0.02 86 1016.2
20260507023512 81 104 2.0 7.0 0.00 0.02 0.02 86 1016.2
20260507023030 81 142 2.0 7.0 0.00 0.02 0.02 86 1016.2
20260507022511 81 106 2.0 7.0 0.00 0.02 0.02 86 1016.2
20260507022012 81 98 3.0 6.0 0.00 0.02 0.02 86 1016.1
20260507021544 82 113 2.0 4.0 0.00 0.02 0.02 86 1016.1
20260507021011 82 113 1.0 4.0 0.00 0.02 0.02 86 1016.1
20260507020510 82 113 2.0 4.0 0.00 0.02 0.02 86 1016.1
20260507020033 82 113 2.0 4.0 0.00 0.02 0.02 85 1016.1
20260507015510 82 113 2.0 6.0 0.00 0.02 0.02 85 1016.2
20260507015009 82 113 2.0 6.0 0.00 0.02 0.02 85 1016.2
20260507014528 82 96 2.0 6.0 0.00 0.02 0.02 85 1016.0
20260507014015 82 140 2.0 6.0 0.00 0.02 0.02 85 1016.0
20260507013511 82 89 3.0 8.0 0.00 0.02 0.02 85 1015.9
20260507013035 82 56 4.0 8.0 0.00 0.02 0.02 85 1015.9
20260507012514 82 134 3.0 8.0 0.00 0.02 0.02 85 1015.9
20260507012014 82 96 3.0 7.0 0.00 0.02 0.02 85 1015.8
20260507011535 82 103 3.0 7.0 0.00 0.02 0.02 85 1015.8
20260507011011 82 96 2.0 8.0 0.00 0.02 0.02 85 1015.7
20260507010513 82 73 3.0 8.0 0.00 0.02 0.02 85 1015.8
20260507010038 82 120 2.0 7.0 0.00 0.02 0.02 85 1015.6
20260507005512 82 120 3.0 7.0 0.00 0.02 0.02 85 1015.6
20260507005017 82 128 3.0 7.0 0.00 0.02 0.02 84 1015.7
20260507004530 82 143 3.0 8.0 0.00 0.02 0.02 84 1015.6
20260507004011 82 101 4.0 8.0 0.00 0.02 0.02 84 1015.6
20260507003511 82 126 3.0 8.0 0.00 0.02 0.02 83 1015.6
20260507003031 82 134 2.0 8.0 0.00 0.02 0.02 83 1015.6
20260507002511 83 116 3.0 9.0 0.00 0.02 0.02 83 1015.6
20260507002011 83 106 3.0 10.0 0.00 0.02 0.02 83 1015.6
20260507001533 83 132 4.0 10.0 0.00 0.02 0.02 82 1015.6
20260507001011 83 98 4.0 10.0 0.00 0.02 0.02 82 1015.6
20260507000517 83 127 3.0 8.0 0.00 0.02 0.02 82 1015.5
20260507000034 83 87 4.0 11.0 0.00 0.02 0.02 82 1015.3
20260506235509 83 92 4.0 11.0 0.00 0.02 0.02 82 1015.3
20260506235016 83 96 5.0 11.0 0.00 0.02 0.02 81 1015.3
20260506234528 83 108 6.0 12.0 0.00 0.02 0.02 81 1015.2
20260506234011 84 129 5.0 12.0 0.00 0.02 0.02 81 1015.2
20260506233508 84 153 4.0 10.0 0.00 0.02 0.02 80 1015.2
20260506233028 84 86 5.0 11.0 0.00 0.02 0.02 79 1015.2
20260506232513 84 101 5.0 11.0 0.00 0.02 0.02 79 1015.2
20260506232010 84 109 5.0 11.0 0.00 0.02 0.02 79 1015.2
20260506231532 85 99 5.0 10.0 0.00 0.02 0.02 79 1015.2
20260506231010 85 129 6.0 10.0 0.00 0.02 0.02 79 1015.1
20260506230511 85 91 5.0 10.0 0.00 0.02 0.02 78 1015.2
20260506230033 85 133 4.0 11.0 0.00 0.02 0.02 78 1015.1
20260506225518 85 128 4.0 12.0 0.00 0.02 0.02 78 1015.1
20260506225010 85 98 7.0 12.0 0.00 0.02 0.02 78 1015.2
20260506224530 85 136 6.0 11.0 0.00 0.02 0.02 77 1015.1
20260506224008 85 113 5.0 13.0 0.00 0.02 0.02 77 1015.1
20260506223515 85 148 7.0 14.0 0.00 0.02 0.02 76 1015.0
20260506223027 86 94 6.0 14.0 0.00 0.02 0.02 76 1014.9
20260506222509 86 109 6.0 15.0 0.00 0.02 0.02 75 1014.9
20260506222015 86 80 7.0 15.0 0.00 0.02 0.02 74 1014.8
20260506221528 86 159 4.0 13.0 0.00 0.02 0.02 75 1014.7
20260506221012 86 108 5.0 14.0 0.00 0.02 0.02 75 1014.7
20260506220510 86 136 7.0 14.0 0.00 0.02 0.02 75 1014.7
20260506220035 86 92 7.0 12.0 0.00 0.02 0.02 75 1014.7
20260506215508 86 89 7.0 15.0 0.00 0.02 0.02 76 1014.7
20260506215012 87 108 5.0 15.0 0.00 0.02 0.02 76 1014.7
20260506214531 87 144 6.0 13.0 0.00 0.02 0.02 77 1014.7
20260506214011 87 98 6.0 14.0 0.00 0.02 0.02 76 1014.7
20260506213511 87 119 3.0 14.0 0.00 0.02 0.02 75 1014.7
20260506213032 87 111 6.0 14.0 0.00 0.02 0.02 74 1014.8
20260506212508 87 131 5.0 13.0 0.00 0.02 0.02 74 1014.7
20260506212015 88 75 7.0 13.0 0.00 0.02 0.02 73 1014.8
20260506211530 87 97 8.0 15.0 0.00 0.02 0.02 73 1014.8
20260506211010 88 59 7.0 15.0 0.00 0.02 0.02 72 1014.9
20260506210511 88 118 9.0 15.0 0.00 0.02 0.02 72 1014.9
20260506210035 88 119 7.0 12.0 0.00 0.02 0.02 72 1015.0
20260506205510 88 67 6.0 16.0 0.00 0.02 0.02 72 1015.0
20260506205008 89 158 7.0 17.0 0.00 0.02 0.02 72 1015.1
20260506204546 89 125 8.0 17.0 0.00 0.02 0.02 72 1015.1
20260506204013 89 128 5.0 16.0 0.00 0.02 0.02 71 1015.1
20260506203513 89 119 7.0 16.0 0.00 0.02 0.02 71 1015.2
20260506203031 89 113 6.0 16.0 0.00 0.02 0.02 71 1015.2
20260506202509 89 116 7.0 15.0 0.00 0.02 0.02 72 1015.2
20260506202010 89 87 7.0 15.0 0.00 0.02 0.02 71 1015.3
20260506201533 89 118 8.0 15.0 0.00 0.02 0.02 70 1015.3
20260506201009 90 132 10.0 15.0 0.00 0.02 0.02 71 1015.3
20260506200508 89 67 7.0 15.0 0.00 0.02 0.02 72 1015.3
20260506200033 90 88 9.0 16.0 0.00 0.02 0.02 72 1015.3
20260506195510 90 121 10.0 16.0 0.00 0.02 0.02 72 1015.4
20260506195010 90 91 8.0 14.0 0.00 0.02 0.02 73 1015.4
20260506194533 90 123 4.0 14.0 0.00 0.02 0.02 74 1015.4
20260506194011 90 145 9.0 18.0 0.00 0.02 0.02 73 1015.4
20260506193509 90 111 9.0 18.0 0.00 0.02 0.02 73 1015.5
20260506193031 90 117 7.0 18.0 0.00 0.02 0.02 73 1015.5
20260506192510 90 119 6.0 15.0 0.00 0.02 0.02 72 1015.6
20260506192012 90 143 9.0 15.0 0.00 0.02 0.02 72 1015.6
20260506191528 91 134 7.0 14.0 0.00 0.02 0.02 72 1015.6
20260506191010 91 119 7.0 14.0 0.00 0.02 0.02 72 1015.7
20260506190511 91 123 5.0 14.0 0.00 0.02 0.02 72 1015.8
20260506190027 91 182 7.0 11.0 0.00 0.02 0.02 71 1015.8
20260506185508 91 120 5.0 12.0 0.00 0.02 0.02 72 1015.9
20260506185011 91 137 7.0 14.0 0.00 0.02 0.02 71 1015.9
20260506184531 90 105 6.0 14.0 0.00 0.02 0.02 72 1015.9
20260506184008 90 134 5.0 14.0 0.00 0.02 0.02 73 1016.0
20260506183511 90 168 6.0 14.0 0.00 0.02 0.02 73 1015.9
20260506183029 90 128 9.0 15.0 0.00 0.02 0.02 73 1016.0
20260506182509 90 130 9.0 15.0 0.00 0.02 0.02 72 1016.1
20260506182010 90 141 7.0 14.0 0.00 0.02 0.02 73 1016.2
20260506181532 90 89 7.0 15.0 0.00 0.02 0.02 74 1016.3
20260506181011 91 88 6.0 15.0 0.00 0.02 0.02 73 1016.3
20260506180510 91 135 7.0 15.0 0.00 0.02 0.02 72 1016.3
20260506180030 91 114 7.0 15.0 0.00 0.02 0.02 72 1016.4
20260506175509 91 123 6.0 15.0 0.00 0.02 0.02 72 1016.5
20260506175011 91 183 6.0 14.0 0.00 0.02 0.02 72 1016.5
20260506174528 90 81 8.0 14.0 0.00 0.02 0.02 72 1016.5
20260506174013 90 145 4.0 13.0 0.00 0.02 0.02 73 1016.5
20260506173510 90 72 5.0 14.0 0.00 0.02 0.02 74 1016.5
20260506173028 90 88 6.0 16.0 0.00 0.02 0.02 74 1016.5
20260506172511 90 127 6.0 16.0 0.00 0.02 0.02 75 1016.6
20260506172009 90 115 8.0 15.0 0.00 0.02 0.02 75 1016.6
20260506171540 90 183 8.0 14.0 0.00 0.02 0.02 74 1016.7
20260506171010 90 124 4.0 13.0 0.00 0.02 0.02 75 1016.7
20260506170511 90 134 5.0 12.0 0.00 0.02 0.02 74 1016.7
20260506170035 90 86 7.0 12.0 0.00 0.02 0.02 73 1016.7
20260506165508 90 136 6.0 11.0 0.00 0.02 0.02 73 1016.8
20260506165010 90 123 6.0 11.0 0.00 0.02 0.02 73 1016.8
20260506164531 90 109 5.0 15.0 0.00 0.02 0.02 72 1016.9